FW1232 Weather Reports


time (UTC)temp
C
wind
direction
speed
KPH
gust
KPH
rain 1hr
cm
rain 24hr
cm
rain mn
cm
humidity
%
barometer
mb
20260903101604 23 98 1.6 4.8 0.00 0.00 0.00 99 1017.6
20260903100059 23 98 0.0 3.2 0.00 0.00 0.00 98 1017.6
20260903094610 23 98 1.6 4.8 0.00 0.00 0.00 98 1017.6
20260903093112 23 99 1.6 4.8 0.00 0.00 0.00 97 1017.5
20260903091601 23 99 1.6 3.2 0.00 0.00 0.00 97 1017.6
20260903084604 24 0 0.0 0.0 0.00 0.00 0.00 96 1017.4
20260903083057 24 0 0.0 0.0 0.00 0.00 0.00 96 1017.3
20260903081602 24 0 0.0 6.4 0.00 0.00 0.00 95 1017.3
20260903080107 24 0 0.0 1.6 0.00 0.00 0.00 96 1017.4
20260903074558 24 0 1.6 4.8 0.00 0.00 0.00 96 1017.3
20260903073059 24 0 1.6 6.4 0.00 0.00 0.00 96 1017.2
20260903071604 24 111 0.0 4.8 0.00 0.00 0.00 95 1017.2
20260903070105 24 0 0.0 1.6 0.00 0.00 0.00 95 1017.4
20260903064601 24 111 1.6 4.8 0.00 0.00 0.00 94 1017.4
20260903063101 25 111 1.6 4.8 0.00 0.00 0.00 95 1017.4
20260903061608 25 111 1.6 4.8 0.00 0.00 0.00 94 1017.3
20260903060106 25 0 0.0 3.2 0.00 0.00 0.00 93 1017.4
20260903054602 25 111 1.6 3.2 0.00 0.00 0.00 91 1017.4
20260903053101 25 111 1.6 6.4 0.00 0.00 0.00 89 1017.4
20260903051605 25 0 0.0 0.0 0.00 0.00 0.00 88 1017.4
20260903050105 25 0 0.0 4.8 0.00 0.00 0.00 89 1017.3
20260903044601 25 173 1.6 4.8 0.00 0.00 0.00 87 1017.4
20260903043103 26 173 1.6 4.8 0.00 0.00 0.00 86 1017.3
20260903041616 26 200 1.6 4.8 0.00 0.00 0.00 87 1017.5
20260903040104 26 200 1.6 4.8 0.00 0.00 0.00 87 1017.5
20260903034604 26 200 1.6 3.2 0.00 0.00 0.00 87 1017.5
20260903033103 26 200 1.6 4.8 0.00 0.00 0.00 87 1017.6
20260903031601 26 208 1.6 4.8 0.00 0.00 0.00 86 1017.4
20260903024608 27 212 0.0 4.8 0.00 0.00 0.00 85 1017.4
20260903023124 27 0 0.0 3.2 0.00 0.00 0.00 83 1017.4
20260903021613 27 214 1.6 3.2 0.00 0.00 0.00 83 1017.4
20260903020100 28 0 0.0 3.2 0.00 0.00 0.00 81 1017.3
20260903014604 28 214 1.6 4.8 0.00 0.00 0.00 79 1017.2
20260903013103 28 0 0.0 0.0 0.00 0.00 0.00 78 1017.0
20260903011604 29 0 0.0 1.6 0.00 0.00 0.00 76 1016.8
20260903004559 30 0 0.0 4.8 0.00 0.00 0.00 73 1016.6
20260903003106 31 215 0.0 0.0 0.00 0.00 0.00 69 1016.6
20260903001600 31 0 0.0 3.2 0.00 0.00 0.00 67 1016.5
20260903000109 32 215 1.6 4.8 0.00 0.00 0.00 65 1016.4
20260902234609 33 215 0.0 4.8 0.00 0.00 0.00 61 1016.5
20260902233101 34 0 3.2 6.4 0.00 0.00 0.00 59 1016.6
20260902231603 35 201 1.6 6.4 0.00 0.00 0.00 56 1016.7
20260902230105 36 0 0.0 6.4 0.00 0.00 0.00 52 1016.8
20260902224600 36 204 1.6 3.2 0.00 0.00 0.00 58 1016.6
20260902223106 36 202 1.6 4.8 0.00 0.00 0.00 54 1016.7
20260902221605 36 198 0.0 4.8 0.00 0.00 0.00 49 1016.8
20260902220107 36 0 0.0 4.8 0.00 0.00 0.00 49 1016.8
20260902214600 37 0 0.0 3.2 0.00 0.00 0.00 49 1016.8
20260902213059 37 196 0.0 4.8 0.00 0.00 0.00 48 1016.8
20260902211607 36 196 0.0 4.8 0.00 0.00 0.00 51 1017.0
20260902204602 36 113 0.0 6.4 0.00 0.00 0.00 52 1017.1
20260902203058 35 313 1.6 9.7 0.00 0.00 0.00 51 1017.2
20260902201606 36 212 3.2 6.4 0.00 0.00 0.00 51 1017.3
20260902194604 36 230 0.0 14.5 0.00 0.00 0.00 51 1017.6
20260902193105 36 269 4.8 11.3 0.00 0.00 0.00 53 1017.9
20260902191604 36 264 6.4 11.3 0.00 0.00 0.00 54 1018.1
20260902190100 35 261 1.6 6.4 0.00 0.00 0.00 52 1018.3
20260902184602 35 254 1.6 11.3 0.00 0.00 0.00 53 1018.3
20260902183100 35 240 3.2 11.3 0.00 0.00 0.00 54 1018.4
20260902181600 35 269 3.2 9.7 0.00 0.00 0.00 56 1018.6
20260902174600 34 196 4.8 16.1 0.00 0.00 0.00 58 1018.7
20260902173101 34 194 3.2 11.3 0.00 0.00 0.00 58 1019.1
20260902171611 33 0 1.6 8.0 0.00 0.00 0.00 60 1019.2
20260902164604 32 185 3.2 6.4 0.00 0.00 0.00 65 1019.6
20260902163101 33 330 1.6 4.8 0.00 0.00 0.00 66 1019.8
20260902161614 33 329 1.6 4.8 0.00 0.00 0.00 67 1020.1
20260902160117 32 0 0.0 3.2 0.00 0.00 0.00 69 1020.3
20260902154601 31 46 0.0 3.2 0.00 0.00 0.00 73 1020.5
20260902153058 31 46 1.6 4.8 0.00 0.00 0.00 73 1020.5
20260902151606 30 0 0.0 3.2 0.00 0.00 0.00 79 1020.4
20260902150059 28 45 1.6 4.8 0.00 0.00 0.00 83 1020.5
20260902144613 30 46 1.6 4.8 0.00 0.00 0.00 80 1020.3
20260902143106 28 49 0.0 3.2 0.00 0.00 0.00 81 1020.2
20260902141558 27 0 0.0 3.2 0.00 0.00 0.00 83 1020.3
20260902140058 26 0 0.0 3.2 0.00 0.00 0.00 87 1020.3
20260902134557 26 0 0.0 3.2 0.00 0.00 0.00 89 1020.5
20260902133109 25 51 1.6 4.8 0.00 0.00 0.00 92 1020.4
20260902131559 25 51 1.6 6.4 0.00 0.00 0.00 94 1020.4
20260902124559 25 0 0.0 0.0 0.00 0.00 0.00 95 1020.3
20260902123110 24 0 0.0 0.0 0.00 0.00 0.00 95 1020.3
20260902121603 23 59 1.6 3.2 0.00 0.00 0.00 97 1020.3
20260902114604 22 59 3.2 4.8 0.00 0.00 0.00 99 1019.9
20260902113104 22 59 3.2 4.8 0.00 0.00 0.00 99 1019.6
20260902111606 22 59 1.6 4.8 0.00 0.00 0.00 99 1019.5
20260902110106 22 59 3.2 4.8 0.00 0.00 0.00 99 1019.3
20260902104610 22 59 1.6 4.8 0.00 0.00 0.00 99 1019.2
20260902103101 22 59 1.6 4.8 0.00 0.00 0.00 99 1019.0